Hourly Data Report for October 25, 2014

All times are specified in Local Standard Time (LST). Add 1 hour to adjust for Daylight Saving Time where and when it is observed.

ARVIAT A
NUNAVUT

61°05'38.000" N
94°04'18.000" W
10.40 m
2300427
71174
YEK

Download Data

Hourly Data (October 2014)
Hourly Data Report for October 25, 2014
Temp Definition
°C
Dew Point Temp Definition
°C
Rel Hum Definition
%
Wind Dir Definition
10's deg

Wind Spd Definition
km/h
Visibility Definition
km
Stn Press Definition
kPa
Hmdx Definition


Wind Chill Definition


Weather Definition


TIME
00:00 Legend Double Dagger 1.1 0.5 96 9 37 11.3 99.85     LegendNANA
01:00 Legend Double Dagger 1.1 0.4 95 8 41 9.7 99.81     Rain,Fog
02:00 Legend Double Dagger 1.0 0.5 96 8 39 12.9 99.80     LegendNANA
03:00 Legend Double Dagger 1.0 0.4 95 8 37 16.1 99.82     Rain
04:00 Legend Double Dagger 1.0 0.4 96 7 37 16.1 99.80     Rain
05:00 Legend Double Dagger 0.8 0.5 98 7 37 9.7 99.78     Snow
06:00 Legend Double Dagger 0.8 0.5 98 7 30 4.8 99.79     Snow
07:00 Legend Double Dagger 0.9 0.6 98 7 32 8.1 99.81     Rain,Fog
08:00 Legend Double Dagger 0.9 0.6 98 6 30 9.7 99.83     Fog
09:00 Legend Double Dagger 0.9 0.6 98 6 30 6.4 99.85     Rain,Fog
10:00 Legend Double Dagger 0.9 0.8 99 5 24 6.4 99.88     Snow
11:00 Legend Double Dagger 0.8 0.7 99 5 26 4.8 99.93     Rain,Fog
12:00 Legend Double Dagger 1.0 0.7 98 5 24 6.4 99.96     Rain,Fog
13:00 Legend Double Dagger 1.0 0.7 98 3 26 8.1 99.99     Rain,Fog
14:00 Legend Double Dagger 0.9 0.6 98 2 24 12.9 100.03     Rain
15:00 Legend Double Dagger 0.9 0.5 97 2 28 16.1 100.07     LegendNANA
16:00 Legend Double Dagger 0.9 0.3 96 1 24 16.1 100.14     LegendNANA
17:00 Legend Double Dagger 0.6 0.0 96 36 22 16.1 100.21     LegendNANA
18:00 Legend Double Dagger 0.3 -0.1 97 36 24 16.1 100.24     LegendNANA
19:00 Legend Double Dagger 0.3 -0.1 97 35 28 16.1 100.28     LegendNANA
20:00 Legend Double Dagger 0.1 -0.2 98 35 28 16.1 100.29     LegendNANA
21:00 Legend Double Dagger 0.0 -0.2 99 35 26 16.1 100.31   -6 LegendNANA
22:00 Legend Double Dagger -0.2 -0.5 98 35 30 16.1 100.32   -7 LegendNANA
23:00 Legend Double Dagger -0.4 -0.7 98 34 28 16.1 100.36   -7 LegendNANA

Notes on Data Quality.

Legend

  • E = Estimated
  • M = Missing
  • NA = Not Available
  • ‡ = Partner data that is not subject to review by the National Climate Archives
Date modified: